Location: Gorze? G�rny
(49.8500°N, 19.5000°E)
Time: 05:00:33
(UTC+00:00)

Cosmos 1818 - Pass Details

Date: 13 May 2021
Orbit: 771 x 802 km, 65.0° (Epoch: 20 June)

Event Time Altitude Azimuth Distance (km) Brightness Sun altitude
Rises 21:22:03 0° 318° (NW) 3,321 8.0 -19.5°
Reaches altitude 10° 21:24:32 10° 314° (NW) 2,388 7.0 -19.6°
Maximum altitude 21:29:52 53° 238° (WSW) 978 3.9 -19.9°
Enters shadow 21:31:39 37° 185° (S) 1,218 4.0 -20.0°
